WY1U-1 Weather Reports


time (UTC)temp
F
wind
direction
speed
knots
gust
knots
rain 1hr
in
rain 24hr
in
rain mn
in
humidity
%
barometer
mb
20260905130151 69 333 0.9 1.7 0.00 0.00 0.00 79 1010.7
20260905120151 66 0 0.0 0.0 0.00 0.00 0.00 85 1010.7
20260905110152 63 0 0.0 0.0 0.00 0.00 0.00 90 1010.2
20260905100151 63 0 0.0 0.0 0.00 0.00 0.00 88 1009.7
20260905090151 63 0 0.0 0.0 0.00 0.01 0.00 88 1009.6
20260905080151 64 311 0.9 3.5 0.00 0.12 0.00 88 1009.5
20260905070158 64 321 0.0 0.9 0.00 0.12 0.00 85 1009.7
20260905070151 64 321 0.0 0.9 0.00 0.12 0.00 85 1009.7
20260905060151 65 0 0.0 0.0 0.00 0.12 0.00 86 1010.2
20260905050151 66 93 0.9 1.7 0.00 0.12 0.00 82 1010.5
20260905040151 66 0 0.0 0.0 0.00 0.12 0.00 86 1010.6
20260905030152 67 0 0.0 0.0 0.00 0.12 0.12 84 1010.4
20260905020151 68 0 0.0 0.0 0.00 0.12 0.12 84 1010.4
20260905010153 69 0 0.0 0.0 0.00 0.12 0.12 81 1010.7
20260905000151 72 0 0.0 0.0 0.00 0.12 0.12 74 1010.4
20260904230151 79 0 0.0 0.0 0.00 0.12 0.12 59 1010.1
20260904220153 83 285 0.9 5.2 0.00 0.12 0.12 47 1009.9
20260904210151 83 4 0.9 3.5 0.00 0.12 0.12 46 1010.1
20260904200151 83 304 2.6 8.7 0.00 0.12 0.12 45 1010.2
20260904190151 82 289 4.3 13.0 0.00 0.12 0.12 48 1010.4
20260904180152 82 15 2.6 6.1 0.00 0.12 0.12 48 1010.6
20260904170156 82 19 1.7 5.2 0.00 0.12 0.12 53 1010.6